Weather History for Milwaukee, WI

Change the Weather History Date:

Thursday, November 15, 2012

  Actual Average Record
Temperature  
Mean Temperature 40 °F 39 °F  
Max Temperature 49 °F 46 °F 69 °F (1953)
Min Temperature 31 °F 32 °F 6 °F (1933)
Degree Days  
Heating Degree Days 25 26  
Month to date heating degree days 370 336  
Since 1 July heating degree days 972 921  
Cooling Degree Days 0 0  
Month to date cooling degree days 0 0  
Year to date cooling degree days 1041 641  
Moisture  
Dew Point 28 °F    
Average Humidity 66    
Maximum Humidity 85    
Minimum Humidity 46    
Precipitation  
Precipitation 0.00 in 0.09 in 1.28 in (1960)
Month to date precipitation 0.27 1.36  
Year to date precipitation 25.34 31.37  
Snow  
Snow 0.00 in 0.00 in 1.50 in (1940)
Month to date snowfall T 0.4  
Since 1 July snowfall T 0.7  
Since 1 September snowfall T 0.7  
Snow Depth 0.00 in    
Sea Level Pressure  
Sea Level Pressure 30.35 in    
Wind  
Wind Speed 6 mph (SSW)    
Max Wind Speed 13 mph    
Max Gust Speed 16 mph    
Visibility 9 miles    
Events      
T = Trace of Precipitation, MM = Missing Value Source: NWS Daily Summary

Daily Weather History Graph

Daily Weather History Graph

Search for Another Location

Airport:

Trip Planner

Search our weather history database for the weather conditions in past years. The results will help you decide how hot, cold, wet, or windy it might be!

Date:

Astronomy

Nov. 15, 2012 Rise Set
Actual Time 6:44 AM CST 4:27 PM CST
Civil Twilight 6:13 AM CST 4:58 PM CST
Nautical Twilight 5:39 AM CST 5:32 PM CST
Astronomical Twilight 5:06 AM CST 6:06 PM CST
Moon 8:41 AM CST (11/15) 6:17 PM CST (11/15)
Length of Visible Light 10h 44m
Length of Day
9h 43m
Waxing Crescent, 5% of the Moon is Illuminated
Nov 15
Waxing Crescent
Nov 20
First Quarter
Nov 28
Full
Dec 6
Last Quarter
Dec 13
New

Hourly Weather History & Observations

Time (CST) Temp. Windchill Dew Point Humidity Pressure Visibility Wind Dir Wind Speed Gust Speed Precip Events Conditions
12:52 AM 34.0 °F 26.6 °F 25.0 °F 70% 30.38 in 10.0 mi SSW 9.2 mph - N/A   Partly Cloudy
1:52 AM 33.1 °F 28.7 °F 25.0 °F 72% 30.38 in 10.0 mi SSW 4.6 mph - N/A   Partly Cloudy
2:52 AM 33.1 °F 28.7 °F 26.1 °F 75% 30.37 in 10.0 mi South 4.6 mph - N/A   Partly Cloudy
3:52 AM 32.0 °F - 25.0 °F 75% 30.36 in 10.0 mi Calm Calm - N/A   Partly Cloudy
4:52 AM 30.9 °F 27.5 °F 25.0 °F 79% 30.37 in 10.0 mi South 3.5 mph - N/A   Partly Cloudy
5:52 AM 30.9 °F 27.5 °F 26.1 °F 82% 30.36 in 8.0 mi South 3.5 mph - N/A   Scattered Clouds
6:52 AM 30.9 °F 25.2 °F 26.1 °F 82% 30.36 in 7.0 mi SSW 5.8 mph - N/A   Mostly Cloudy
7:52 AM 33.1 °F 27.7 °F 27.0 °F 78% 30.38 in 7.0 mi SSW 5.8 mph - N/A   Mostly Cloudy
8:52 AM 35.1 °F 28.6 °F 28.0 °F 76% 30.38 in 6.0 mi SSW 8.1 mph - N/A   Haze
9:52 AM 37.9 °F 30.9 °F 28.9 °F 70% 30.38 in 7.0 mi SSW 10.4 mph - N/A   Mostly Cloudy
10:52 AM 41.0 °F 34.3 °F 28.9 °F 62% 30.37 in 9.0 mi SSW 11.5 mph - N/A   Mostly Cloudy
11:52 AM 46.0 °F 41.0 °F 28.9 °F 51% 30.34 in 10.0 mi SW 10.4 mph - N/A   Scattered Clouds
12:52 PM 48.0 °F - 30.0 °F 50% 30.32 in 10.0 mi SW 10.4 mph - N/A   Scattered Clouds
1:52 PM 48.9 °F - 28.9 °F 46% 30.31 in 10.0 mi SSW 9.2 mph - N/A   Partly Cloudy
2:52 PM 48.9 °F - 28.9 °F 46% 30.31 in 10.0 mi SW 9.2 mph - N/A   Partly Cloudy
3:52 PM 48.0 °F - 28.9 °F 48% 30.32 in 10.0 mi SSW 5.8 mph - N/A   Partly Cloudy
4:52 PM 44.1 °F 39.5 °F 33.1 °F 65% 30.32 in 7.0 mi South 8.1 mph - N/A   Scattered Clouds
5:52 PM 43.0 °F 41.3 °F 32.0 °F 65% 30.34 in 7.0 mi South 3.5 mph - N/A   Mostly Cloudy
6:52 PM 41.0 °F 39.0 °F 30.0 °F 65% 30.35 in 9.0 mi South 3.5 mph - N/A   Scattered Clouds
7:52 PM 39.9 °F 37.8 °F 28.0 °F 63% 30.36 in 10.0 mi SW 3.5 mph - N/A   Partly Cloudy
8:52 PM 39.2 °F 35.0 °F 28.4 °F 65% 30.34 in 10.0 mi SW 5.8 mph - N/A   Clear
9:52 PM 39.0 °F 34.8 °F 28.9 °F 67% 30.37 in 10.0 mi WSW 5.8 mph - N/A   Partly Cloudy
10:52 PM 39.0 °F 34.0 °F 28.9 °F 67% 30.36 in 10.0 mi WSW 6.9 mph - N/A   Partly Cloudy
11:52 PM 39.0 °F 35.7 °F 28.9 °F 67% 30.36 in 10.0 mi WSW 4.6 mph - N/A   Partly Cloudy